Weather in Pitlochry

United Kingdom     56°42′12″N   3°43′45″W
temp.,
°C
wind,
m/s
gust,
m/s
humid.,
%
clouds,
%
prec.,
mm/h
press.,
hPa
HPBL,
m
24 october, sun
sun2401:00+9s61596100 2.4 10081205
04:00+9s51497100 1.5 10051160
07:00+10s51297100 3.9 10041023
10:00+10s4109199 0.6 1005951
13:00+11s5118489 0.8 10041069
16:00+10s410855 0.1 10031102
19:00+8s51190100 0.2 1003770
22:00+9s5108968 0.6 1002980
25 october, mon
mon2501:00+7s378992 0.8 1002264
04:00+5s249455 0.1 100283
07:00+6ssw3881100 0.2 1002466
10:00+6ssw31080100 0.1 10031439
13:00+8wsw5117495 0.4 10041355
16:00+7wsw411765 0.3 10051341
19:00+3s119021 0.3 100710
22:00+5sse1290100 0.1 100774
26 october, tue
tue2601:00+5s129598 0.2 100877
04:00+5sse2398100 0.0 1008108
07:00+6se2699100 0.1 1007335
10:00+6se21098100 0.9 1006709
13:00+7se2499100 1.1 1004184
16:00+8se2599100 0.3 1003171
19:00+11s3995100 0.8 1002400
22:00+12ssw62084100 0.3 10001699
27 october, wed
wed2701:00+12ssw61591100 0.8 9991287
04:00+11ssw41294100 0.6 9991004
07:00+11sse2596100 0.9 1000157
10:00+11s21097100 0.9 1000626
13:00+11s2598100 3.6 1000223
16:00+12sw41081100 0.1 10001001
19:00+9sse2396100 0.1 100248
22:00+9se2499100 0.0 1002156
28 october, thu
thu2801:00+9se2398100 0.1 1001119
04:00+9se1199100 0.4 100146
07:00+7ssw1197100 0.6 100110
10:00+8s0196100 0.1 100162
13:00+10se128315 0.1 1000542
16:00+9ese2283100 0.0 998262
19:00+6e11962 0.0 99710
22:00+5ene119799 0.0 99510